When you browse on this site, cookies collect data to enhance your experience and personalize the content and advertising you see.
Visit our Privacy Policy to learn more. By continuing to use the site, you agree to this use of cookies and data.
  • In Hungary
  • List of Countries
  • For 7 days
  • Water Temperature
  • Satellite Maps
  • Weather Map
  • News
  • Weather Widgets
  • user-avatar
    Login

    Hourly Weather Canidelo

    Today, 20 July, Saturday

    Time Temperature Precipitation Wind Pressure Humidity
    00:00 +20°C° 0 mm 3 mps 759 mmHg 87%
    01:00 +20°C° 0 mm 3 mps 759 mmHg 87%
    02:00 +19°C° 0 mm 3 mps 759 mmHg 88%
    03:00 +19°C° 0 mm 3 mps 759 mmHg 88%
    04:00 +19°C° 0 mm 2 mps 759 mmHg 88%
    05:00 +20°C° 0 mm 2 mps 759 mmHg 89%
    06:00 +21°C° 0 mm 2 mps 759 mmHg 81%
    07:00 +24°C° 0 mm 3 mps 759 mmHg 73%
    08:00 +25°C° 0 mm 3 mps 759 mmHg 65%
    09:00 +26°C° 0 mm 4 mps 759 mmHg 61%
    10:00 +27°C° 0 mm 5 mps 760 mmHg 58%
    11:00 +28°C° 0 mm 6 mps 760 mmHg 54%
    12:00 +28°C° 0 mm 6 mps 760 mmHg 53%
    13:00 +28°C° 0 mm 6 mps 760 mmHg 51%
    14:00 +28°C° 0 mm 6 mps 760 mmHg 50%
    15:00 +27°C° 0 mm 6 mps 760 mmHg 51%
    16:00 +26°C° 0 mm 6 mps 760 mmHg 51%
    17:00 +24°C° 0 mm 6 mps 759 mmHg 52%
    18:00 +23°C° 0 mm 6 mps 760 mmHg 59%
    19:00 +21°C° 0 mm 6 mps 761 mmHg 65%
    20:00 +20°C° 0 mm 6 mps 761 mmHg 71%
    21:00 +19°C° 0 mm 5 mps 761 mmHg 73%
    22:00 +19°C° 0 mm 4 mps 761 mmHg 74%
    23:00 +19°C° 0 mm 4 mps 762 mmHg 76%

    Tomorrow, 21 July, Sunday

    Time Temperature Precipitation Wind Pressure Humidity
    00:00 +18°C° 0 mm 3 mps 761 mmHg 76%
    01:00 +18°C° 0 mm 3 mps 761 mmHg 77%
    02:00 +18°C° 0 mm 3 mps 761 mmHg 77%
    03:00 +18°C° 0 mm 3 mps 761 mmHg 77%
    04:00 +18°C° 0 mm 3 mps 761 mmHg 77%
    05:00 +18°C° 0 mm 3 mps 761 mmHg 77%
    06:00 +21°C° 0 mm 3 mps 761 mmHg 69%
    07:00 +24°C° 0 mm 3 mps 761 mmHg 61%
    08:00 +27°C° 0 mm 4 mps 761 mmHg 52%
    09:00 +28°C° 0 mm 4 mps 761 mmHg 48%
    10:00 +30°C° 0 mm 5 mps 761 mmHg 43%
    11:00 +33°C° 0 mm 5 mps 761 mmHg 38%
    12:00 +33°C° 0 mm 6 mps 761 mmHg 39%
    13:00 +32°C° 0 mm 7 mps 760 mmHg 40%
    14:00 +32°C° 0 mm 7 mps 760 mmHg 40%
    15:00 +30°C° 0 mm 7 mps 760 mmHg 42%
    16:00 +30°C° 0 mm 7 mps 760 mmHg 43%
    17:00 +29°C° 0 mm 7 mps 760 mmHg 44%
    18:00 +27°C° 0 mm 6 mps 760 mmHg 50%
    19:00 +26°C° 0 mm 5 mps 760 mmHg 56%
    20:00 +23°C° 0 mm 4 mps 761 mmHg 63%
    21:00 +24°C° 0 mm 3 mps 761 mmHg 63%
    22:00 +22°C° 0 mm 3 mps 761 mmHg 64%
    23:00 +23°C° 0 mm 2 mps 761 mmHg 65%

    Day after tomorrow, 22 July, Monday

    Time Temperature Precipitation Wind Pressure Humidity
    00:00 +21°C° 0 mm 2 mps 760 mmHg 66%
    01:00 +22°C° 0 mm 1 mps 760 mmHg 66%
    02:00 +22°C° 0 mm 1 mps 760 mmHg 67%
    03:00 +22°C° 0 mm 1 mps 760 mmHg 68%
    04:00 +22°C° 0 mm 1 mps 760 mmHg 69%
    05:00 +21°C° 0 mm 1 mps 760 mmHg 70%
    06:00 +24°C° 0 mm 1 mps 760 mmHg 62%
    07:00 +26°C° 0 mm 1 mps 760 mmHg 54%
    08:00 +29°C° 0 mm 1 mps 760 mmHg 47%
    09:00 +30°C° 0 mm 2 mps 760 mmHg 43%
    10:00 +32°C° 0 mm 2 mps 760 mmHg 40%
    11:00 +34°C° 0 mm 3 mps 760 mmHg 36%
    12:00 +34°C° 0 mm 3 mps 759 mmHg 36%
    13:00 +34°C° 0 mm 3 mps 759 mmHg 36%
    14:00 +34°C° 0 mm 3 mps 759 mmHg 37%
    15:00 +33°C° 0 mm 3 mps 758 mmHg 40%
    16:00 +31°C° 0 mm 3 mps 758 mmHg 44%
    17:00 +29°C° 0 mm 3 mps 758 mmHg 47%
    18:00 +27°C° 0 mm 3 mps 758 mmHg 55%
    19:00 +25°C° 0 mm 3 mps 759 mmHg 64%
    20:00 +22°C° 0 mm 3 mps 759 mmHg 72%
    21:00 +23°C° 0 mm 2 mps 759 mmHg 74%
    22:00 +23°C° 0 mm 2 mps 759 mmHg 76%
    23:00 +21°C° 0 mm 2 mps 759 mmHg 78%

    23 July, Tuesday

    Time Temperature Precipitation Wind Pressure Humidity
    00:00 +21°C° 0 mm 2 mps 759 mmHg 80%
    01:00 +20°C° 0 mm 2 mps 758 mmHg 83%
    02:00 +21°C° 0 mm 1 mps 758 mmHg 86%
    03:00 +21°C° 0 mm 1 mps 758 mmHg 86%
    04:00 +21°C° 0 mm 1 mps 758 mmHg 87%
    05:00 +20°C° 0 mm 2 mps 758 mmHg 87%
    06:00 +21°C° 0 mm 2 mps 758 mmHg 80%
    07:00 +24°C° 0 mm 2 mps 759 mmHg 72%
    08:00 +25°C° 0 mm 2 mps 759 mmHg 64%
    09:00 +27°C° 0 mm 3 mps 759 mmHg 59%
    10:00 +28°C° 0 mm 3 mps 759 mmHg 53%
    11:00 +30°C° 0 mm 4 mps 759 mmHg 48%
    12:00 +29°C° 0 mm 4 mps 758 mmHg 51%
    13:00 +28°C° 0 mm 4 mps 758 mmHg 54%
    14:00 +27°C° 0 mm 5 mps 758 mmHg 57%
    15:00 +27°C° 0 mm 5 mps 758 mmHg 57%
    16:00 +27°C° 0 mm 4 mps 758 mmHg 56%
    17:00 +26°C° 0 mm 4 mps 758 mmHg 56%
    18:00 +25°C° 0 mm 4 mps 758 mmHg 61%
    19:00 +22°C° 0 mm 3 mps 758 mmHg 66%
    20:00 +21°C° 0 mm 3 mps 759 mmHg 71%
    21:00 +20°C° 0 mm 3 mps 759 mmHg 73%
    22:00 +20°C° 0 mm 3 mps 759 mmHg 75%
    23:00 +20°C° 0 mm 2 mps 758 mmHg 76%

    24 July, Wednesday

    Time Temperature Precipitation Wind Pressure Humidity
    00:00 +19°C° 0 mm 2 mps 758 mmHg 77%
    01:00 +19°C° 0 mm 2 mps 758 mmHg 77%
    02:00 +19°C° 0 mm 2 mps 757 mmHg 77%
    03:00 +19°C° 0 mm 2 mps 757 mmHg 77%
    04:00 +19°C° 0 mm 2 mps 757 mmHg 76%
    05:00 +20°C° 0 mm 1 mps 757 mmHg 75%
    06:00 +22°C° 0 mm 1 mps 757 mmHg 67%
    07:00 +24°C° 0 mm 1 mps 757 mmHg 59%
    08:00 +27°C° 0 mm 1 mps 757 mmHg 50%
    09:00 +28°C° 0 mm 2 mps 757 mmHg 45%
    10:00 +29°C° 0 mm 2 mps 757 mmHg 40%
    11:00 +31°C° 0 mm 3 mps 757 mmHg 35%
    12:00 +30°C° 0 mm 3 mps 756 mmHg 38%
    13:00 +30°C° 0 mm 3 mps 756 mmHg 41%
    14:00 +29°C° 0 mm 3 mps 756 mmHg 44%
    15:00 +28°C° 0 mm 3 mps 756 mmHg 51%
    16:00 +27°C° 0 mm 2 mps 756 mmHg 57%
    17:00 +26°C° 0 mm 2 mps 756 mmHg 64%
    18:00 +25°C° 0 mm 2 mps 756 mmHg 70%
    19:00 +24°C° 0 mm 1 mps 757 mmHg 77%
    20:00 +22°C° 0 mm 1 mps 757 mmHg 83%
    21:00 +22°C° 0 mm 1 mps 757 mmHg 84%
    22:00 +22°C° 0 mm 1 mps 757 mmHg 85%
    23:00 +21°C° 0 mm 2 mps 757 mmHg 86%

    25 July, Thursday

    Time Temperature Precipitation Wind Pressure Humidity
    00:00 +21°C° 0 mm 2 mps 756 mmHg 86%
    01:00 +21°C° 0 mm 2 mps 756 mmHg 86%
    02:00 +21°C° 0 mm 2 mps 756 mmHg 87%
    03:00 +21°C° 0 mm 2 mps 756 mmHg 88%
    04:00 +21°C° 0 mm 2 mps 757 mmHg 89%
    05:00 +21°C° 0 mm 3 mps 757 mmHg 90%
    06:00 +22°C° 0.1 mm 3 mps 757 mmHg 85%
    07:00 +22°C° 0.1 mm 3 mps 757 mmHg 79%
    08:00 +24°C° 0.1 mm 3 mps 758 mmHg 74%
    09:00 +25°C° 0 mm 3 mps 758 mmHg 71%
    10:00 +25°C° 0 mm 3 mps 758 mmHg 68%
    11:00 +26°C° 0 mm 3 mps 758 mmHg 65%
    12:00 +25°C° 0 mm 3 mps 758 mmHg 65%
    13:00 +25°C° 0 mm 4 mps 758 mmHg 66%
    14:00 +23°C° 0 mm 5 mps 758 mmHg 67%
    15:00 +23°C° 0 mm 5 mps 758 mmHg 64%
    16:00 +23°C° 0 mm 5 mps 759 mmHg 61%
    17:00 +23°C° 0 mm 5 mps 759 mmHg 58%
    18:00 +21°C° 0 mm 4 mps 759 mmHg 63%
    19:00 +20°C° 0 mm 4 mps 760 mmHg 69%
    20:00 +19°C° 0 mm 4 mps 760 mmHg 74%
    21:00 +18°C° 0 mm 4 mps 760 mmHg 76%
    22:00 +18°C° 0 mm 4 mps 760 mmHg 77%
    23:00 +17°C° 0 mm 4 mps 760 mmHg 79%
    Show more